TimeMST,TemperatureF,Dew PointF,Humidity,Sea Level PressureIn,VisibilityMPH,Wind Direction,Wind SpeedMPH,Gust SpeedMPH,PrecipitationIn,Events,Conditions,WindDirDegrees,DateUTC
12:53 AM,32.0,10.0,40,30.17,10.0,West,5.8,-,N/A,,Clear,270,2012-12-05 07:53:00
1:53 AM,30.9,10.0,42,30.16,10.0,NW,4.6,-,N/A,,Clear,310,2012-12-05 08:53:00
2:53 AM,30.9,10.0,42,30.13,10.0,Calm,Calm,-,N/A,,Clear,0,2012-12-05 09:53:00
3:53 AM,30.0,9.0,41,30.13,10.0,Calm,Calm,-,N/A,,Clear,0,2012-12-05 10:53:00
4:53 AM,28.0,10.0,47,30.15,10.0,West,3.5,-,N/A,,Clear,270,2012-12-05 11:53:00
5:53 AM,28.9,10.0,45,30.17,10.0,Calm,Calm,-,N/A,,Clear,0,2012-12-05 12:53:00
7:53 AM,32.0,12.0,44,30.16,10.0,West,3.5,-,N/A,,Clear,270,2012-12-05 14:53:00
8:53 AM,39.9,15.1,36,30.13,9.0,Calm,Calm,-,N/A,,Clear,0,2012-12-05 15:53:00
9:53 AM,51.1,19.0,28,30.06,10.0,Calm,Calm,-,N/A,,Clear,0,2012-12-05 16:53:00
10:53 AM,57.9,19.9,23,30.00,10.0,SW,4.6,-,N/A,,Clear,220,2012-12-05 17:53:00
11:53 AM,68.0,23.0,18,29.90,10.0,West,12.7,-,N/A,,Clear,280,2012-12-05 18:53:00
12:53 PM,69.1,21.9,17,29.85,4.0,Variable,3.5,-,N/A,,Haze,0,2012-12-05 19:53:00
1:53 PM,69.1,21.0,16,29.83,10.0,WSW,3.5,-,N/A,,Clear,250,2012-12-05 20:53:00
2:27 PM,71.6,21.2,15,29.88,2.5,South,5.8,-,N/A,,Clear,190,2012-12-05 21:27:00
2:36 PM,69.8,21.2,16,29.87,10.0,South,8.1,-,N/A,,Clear,180,2012-12-05 21:36:00
2:53 PM,70.0,21.9,16,29.79,10.0,South,4.6,-,N/A,,Clear,180,2012-12-05 21:53:00
3:53 PM,66.0,21.0,18,29.80,10.0,Calm,Calm,-,N/A,,Clear,0,2012-12-05 22:53:00
4:53 PM,61.0,21.0,21,29.82,10.0,Calm,Calm,-,N/A,,Clear,0,2012-12-05 23:53:00
5:53 PM,62.1,21.0,21,29.81,10.0,Calm,Calm,-,N/A,,Clear,0,2012-12-06 00:53:00
6:53 PM,55.9,14.0,19,29.84,10.0,West,12.7,-,N/A,,Clear,260,2012-12-06 01:53:00
7:53 PM,52.0,14.0,22,29.84,10.0,West,16.1,-,N/A,,Clear,280,2012-12-06 02:53:00
8:53 PM,55.9,14.0,19,29.79,10.0,West,10.4,-,N/A,,Clear,280,2012-12-06 03:53:00
9:53 PM,48.9,12.9,24,29.79,10.0,WNW,10.4,-,N/A,,Clear,290,2012-12-06 04:53:00
10:53 PM,55.0,14.0,20,29.74,10.0,WNW,15.0,-,N/A,,Clear,290,2012-12-06 05:53:00
11:53 PM,54.0,16.0,22,29.72,10.0,West,8.1,-,N/A,,Clear,270,2012-12-06 06:53:00